Regional Weather Roundup
Issued by NWS Jackson, KY

Home | Current Version | Previous Version | Graphics & Text | Print | Product List | Glossary On
Versions: 1 2 3 4 5 6 7 8 9 10 11 12 13 14 15 16 17 18 19 20 21 22 23 24 25 26 27 28 29 30 31 32 33 34 35 36 37 38 39 40 41 42 43 44 45 46 47 48 49 50
000
ASUS43 KJKL 211511
RWRJKL

EAST KENTUCKY HOURLY WEATHER ROUNDUP
NATIONAL WEATHER SERVICE JACKSON KY
1000 AM EST SUN DEC 21 2014

NOTE: "FAIR" INDICATES FEW OR NO CLOUDS BELOW 12,000 FEET WITH
NO SIGNIFICANT WEATHER AND/OR OBSTRUCTIONS TO VISIBILITY.

* THESE REPORTS ARE NOT UNDER NWS QUALITY CONTROL AND MAY NOT
  REPORT WEATHER SUCH AS PRECIPITATION AND FOG.

KYZ079-080-083-085-087-088-110-112-115-119-120-211600
...EASTERN KENTUCKY...

CITY           SKY/WX    TMP DP  RH WIND       PRES   REMARKS
JACKSON        SUNNY     30  25  81 VRB3      30.27S
LONDON         SUNNY     32  27  81 E6        30.27S WCI  26
SOMERSET*      SUNNY     30  28  93 CALM      30.29S
MONTICELLO*    SUNNY     31  28  88 CALM      30.29F FOG
MIDDLESBORO*   PTSUNNY   26  26 100 CALM      30.29R FOG
HARLAN APT*    SUNNY     32  32 100 E3        30.26S
BLACK MTN*       N/A     37  25  60 CALM        N/A
PIKEVILLE APT* SUNNY     30  27  86 CALM      30.27S
BIG SANDY*     SUNNY     32  28  86 CALM      30.29S
MOREHEAD APT*  CLOUDY    34  27  75 E6        30.32S WCI  29
$$

KYZ035-036-041-042-044-050-067-078-099-211600
...CENTRAL KENTUCKY...

CITY           SKY/WX    TMP DP  RH WIND       PRES   REMARKS
MT STERLING*   SUNNY     32  28  86 SE6       30.32R WCI  26
FLEMING/MASON* CLOUDY    30  27  86 E7        30.32S WCI  23
DANVILLE*      PTSUNNY   25  25 100 CALM      30.29F FOG
RICHMOND*      SUNNY     30  27  86 E5        30.28S WCI  25
LEXINGTON      SUNNY     31  27  85 E10       30.29S WCI  22
FRANKFORT      SUNNY     29  25  85 E5        30.30R FOG     WCI  24
$$

KYZ091>093-OHZ055-061-077-WVZ005-015-034-035-042-211600
...SOUTHERN OHIO/WEST VIRGINIA...

CITY           SKY/WX    TMP DP  RH WIND       PRES   REMARKS
COVINGTON      CLOUDY    30  22  72 SE6       30.31R WCI  24
COLUMBUS       MOSUNNY   31  21  66 SE5       30.33R WCI  26
DAYTON         MOSUNNY   30  25  81 SE7       30.31R HAZE    WCI  23
WILMINGTON     MOSUNNY   29  23  78 SE8       30.31R WCI  21
HUNTINGTON     PTSUNNY   33  27  78 E5        30.32R WCI  29
CHARLESTON     MOSUNNY   33  27  78 NE3       30.31S
PINEVILLE*     FOG       32  32 100 MISG      30.32R VSB 1/4
BECKLEY        SUNNY     33  26  75 E3        30.23S
BLUEFIELD      SUNNY     37  24  59 CALM      30.23R
$$

VAZ002-007-008-TNZ017-027-036-066-071-211600
...SOUTHWEST VIRGINIA/EAST TENNESSEE...

CITY           SKY/WX    TMP DP  RH WIND       PRES   REMARKS
WISE*          SUNNY     34  32  93 E3        30.22S
JONESVILLE*    SUNNY     32  28  86 CALM      30.28S
ABINGDON*      SUNNY     42  37  83 E3        30.23S
BRISTOL        PTSUNNY   41  38  89 CALM      30.25R
KNOXVILLE      CLOUDY    41  32  70 N6        30.25R
OAK RIDGE      CLOUDY    36  31  82 VRB3      30.27R
CROSSVILLE     SUNNY     37  27  67 NE3       30.22S
NASHVILLE      MOSUNNY   34  30  85 CALM      30.25S
$$

...KEY TO REMARKS...
VSB - VISIBILITY IN MILES
WCI - WIND CHILL INDEX
HX  - HEAT INDEX

$$



USA.gov is the U.S. government's official web portal to all federal, state and local government web resources and services.